Overview Statistics Trail Chart Weather Telemetry Raw packets
 

This is the latest recevied weather packets stored in our database for station/object DL2GPS-3. If no packets are shown the sender has not sent any weather packets the latest 10 day(s).

<< 48 49 50 51 52 53 54 >>
Time Temp. Humidity Pressure Rain* Wind** Luminosity Snow
1787956266 15° C 85% 1020.5 hPa - - - -
1787955662 14.44° C 87% 1020.4 hPa - - - -
1787955057 14.44° C 87% 1020.4 hPa - - - -
1787954452 14.44° C 85% 1020.3 hPa - - - -
1787953847 15° C 83% 1020.4 hPa - - - -
1787953246 15° C 82% 1020.4 hPa - - - -
1787952636 15° C 83% 1020.3 hPa - - - -
1787952031 15.56° C 80% 1020.1 hPa - - - -
1787951425 15.56° C 81% 1020.2 hPa - - - -
1787950821 15.56° C 81% 1020.1 hPa - - - -
1787950216 15.56° C 82% 1019.9 hPa - - - -
1787949611 15.56° C 79% 1019.7 hPa - - - -
1787949005 15.56° C 80% 1019.5 hPa - - - -
1787948400 15.56° C 79% 1019.4 hPa - - - -
1787947795 15° C 79% 1019.2 hPa - - - -
1787947191 15° C 79% 1019.1 hPa - - - -
1787946585 15° C 78% 1018.9 hPa - - - -
1787945981 15° C 77% 1018.7 hPa - - - -
1787945376 15° C 77% 1018.5 hPa - - - -
1787944772 15.56° C 77% 1018.6 hPa - - - -
1787944167 15.56° C 77% 1018.9 hPa - - - -
1787943562 15.56° C 76% 1018.7 hPa - - - -
1787942957 15.56° C 77% 1018.7 hPa - - - -
1787942352 15.56° C 76% 1018.6 hPa - - - -
1787941747 15.56° C 77% 1018.5 hPa - - - -

* Rain since midnight (hover to see other rain measurements)
** Current wind speed in m/s (hover to see current wind gust speed)